Location: Bas-Clignon
(44.2000°N, 6.6333°E)
Time: 13:39:42
(UTC+00:00)

CZ-4B R/B - Pass Details

Date: 03 February 2023
Orbit: 809 x 881 km, 99.0° (Epoch: 20 March)

Event Time Altitude Azimuth Distance (km) Brightness Sun altitude
Rises 17:48:02 0° 143° (SE) 3,332 6.1 -11.5°
Reaches altitude 10° 17:50:27 10° 137° (SE) 2,411 5.3 -11.9°
Maximum altitude 17:55:26 42° 67° (ENE) 1,164 3.5 -12.8°
Drops below altitude 10° 18:00:33 10° 358° (N) 2,467 5.5 -13.7°
Sets 18:03:02 0° 352° (N) 3,418 6.4 -14.2°
